1386028830084,20.2656
1386028890084,20.3362
1386028950084,20.3460
1386029010084,20.3179
1386029070084,20.3292
1386029130084,20.3489
1386029190084,20.2603
1386029250084,20.3232
1386029310084,20.2375
1386029370084,20.2855
1386029430084,20.3399
1386029490084,20.3028
1386029550084,20.2779
1386029610084,20.3831
1386029670084,20.2548
1386029730084,20.2887
1386029790084,20.2746
1386029850084,20.3394
1386029910084,20.3164
1386029970084,20.2628
1386030030084,20.2920
1386030090084,20.2979
1386030150084,20.3100
1386030210084,20.3100
1386030270084,20.3248
1386030330084,20.3593
1386030390084,20.4197
1386030450084,20.3614
1386030510084,20.3036
1386030570084,20.3086
1386030630084,20.3537
1386030690084,20.3406
1386030750084,20.2932
1386030810084,20.4150
1386030870084,20.3036
1386030930084,20.4108
1386030990084,20.3302
1386031050084,20.3392
1386031110084,20.4000
1386031170084,20.3499
1386031230084,20.3888
1386031290084,20.4260
1386031350084,20.3176
1386031410084,20.3253
1386031470084,20.3804
1386031530084,20.3020
1386031590084,20.3450
1386031650084,20.3626
1386031710084,20.4551
1386031770084,20.4361
1386031830084,20.4075
1386031890084,20.3663
1386031950084,20.4057
1386032010084,20.3756
1386032070084,20.3621
1386032130084,20.3598
1386032190084,20.3010
1386032250084,20.2592
1386032310084,20.3085
1386032370084,20.3013
1386032430095,20.3751
1386032490095,20.3416
1386032550095,20.3670
1386032610095,20.4236
1386032670095,20.3512
1386032730095,20.3202
1386032790095,20.3165
1386032850095,20.3234
1386032910095,20.3129
1386032970095,20.2657
1386033030095,20.3335
1386033090095,20.5381
1386033150095,20.3454
1386033210095,20.2559
1386033270095,20.3456
1386033330095,20.3342
1386033390095,20.2737
1386033450095,20.3753
1386033510095,20.3082
1386033570095,20.2699
1386033630095,20.3023
1386033690095,20.3468
1386033750095,20.3050
1386033810095,20.3703
1386033870095,20.3428
1386033930095,20.3012
1386033990095,20.2885
1386034050095,20.2784
1386034110095,20.2638
1386034170095,20.2553
1386034230095,20.2726
1386034290095,20.2360
1386034350095,20.2932
1386034410095,20.3270
1386034470095,20.2929
1386034530095,20.3191
1386034590095,20.2804
1386034650095,20.2716
1386034710095,20.3075
1386034770095,20.3196
1386034830095,20.3371
1386034890095,20.3020
1386034950095,20.2177
1386035010095,20.2578
1386035070095,20.3103
1386035130095,20.3068
1386035190095,20.2333
1386035250095,20.2786
1386035310095,20.3255
1386035370095,20.3349
1386035430095,20.3424
1386035490095,20.3830
1386035550095,20.2761
1386035610095,20.2840
1386035670095,20.3495
1386035730095,20.3659
1386035790095,20.3408
1386035850095,20.3751
1386035910095,20.3107
1386035970095,20.3319
1386036030105,20.3556
1386036090105,20.3846
1386036150105,20.3815
1386036210105,20.3691
1386036270105,20.2941
1386036330105,20.2599
1386036390105,20.2552
1386036450105,20.2901
1386036510105,20.3210
1386036570105,20.3081
1386036630105,20.3073
1386036690105,20.3119
1386036750105,20.2662
1386036810105,20.3070
1386036870105,20.2808
1386036930105,20.3590
1386036990105,20.3201
1386037050105,20.3393
1386037110105,20.3489
1386037170105,20.3125
1386037230105,20.3269
1386037290105,20.4492
1386037350105,20.4597
1386037410105,20.4636
1386037470105,20.4848
1386037530105,20.3896
1386037590105,20.4705
1386037650105,20.4736
1386037710105,20.4176
1386037770105,20.3837
1386037830105,20.4204
1386037890105,20.3709
1386037950105,20.4029
1386038010105,20.3993
1386038070105,20.3930
1386038130105,20.3794
1386038190105,20.4060
1386038250105,20.3475
1386038310105,20.3841
1386038370105,20.3011
1386038430105,20.3613
1386038490105,20.3537
1386038550105,20.3894
1386038610105,20.3671
1386038670105,20.3356
1386038730105,20.2880
1386038790105,20.3028
1386038850105,20.3214
1386038910105,20.3041
1386038970105,20.3333
1386039030105,20.2608
1386039090105,20.3405
1386039150105,20.3133
1386039210105,20.2952
1386039270105,20.3351
1386039330105,20.2294
1386039390105,20.2982
1386039450105,20.2529
1386039510105,20.2858
1386039570105,20.2884
1386039630115,20.3998
1386039690115,20.3537
1386039750115,20.2963
1386039810115,20.2961
1386039870115,20.2639
1386039930115,20.2239
1386039990115,20.2889
1386040050115,20.2209
1386040110115,20.2664
1386040170115,20.2979
1386040230115,20.2208
1386040290115,20.2652
1386040350115,20.2566
1386040410115,20.2769
1386040470115,20.2795
1386040530115,20.3057
1386040590115,20.2729
1386040650115,20.2261
1386040710115,20.2901
1386040770115,20.2341
1386040830115,20.2343
1386040890115,20.3571
1386040950115,20.3015
1386041010115,20.3090
1386041070115,20.3297
1386041130115,20.2720
1386041190115,20.2897
1386041250115,20.3031
1386041310115,20.3101
1386041370115,20.2468
1386041430115,20.2688
1386041490115,20.2467
1386041550115,20.2886
1386041610115,20.2766
1386041670115,20.2301
1386041730115,20.2677
1386041790115,20.3052
1386041850115,20.2440
1386041910115,20.3089
1386041970115,20.2912
1386042030115,20.2753
1386042090115,20.2743
1386042150115,20.2113
1386042210115,20.2472
1386042270115,20.2398
1386042330115,20.2821
1386042390115,20.2707
1386042450115,20.2561
1386042510115,20.2894
1386042570115,20.3154
1386042630115,20.2437
1386042690115,20.2272
1386042750115,20.3307
1386042810115,20.1854
1386042870115,20.1946
1386042930115,20.2461
1386042990115,20.2140
1386043050115,20.2639
1386043110115,20.2283
1386043170115,20.2236
1386043230125,20.2233
1386043290125,20.2253
1386043350125,20.1479
1386043410125,20.2385
1386043470125,20.2493
1386043530125,20.2397
1386043590125,20.2247
1386043650125,20.2801
1386043710125,20.2554
1386043770125,20.2507
1386043830125,20.2584
1386043890125,20.2085
1386043950125,20.2329
1386044010125,20.2018
1386044070125,20.2522
1386044130125,20.2261
1386044190125,20.2827
1386044250125,20.2314
1386044310125,20.2241
1386044370125,20.1849
1386044430125,20.2657
1386044490125,20.1916
1386044550125,20.2478
1386044610125,20.2004
1386044670125,20.1593
1386044730125,20.1588
1386044790125,20.2287
1386044850125,20.1849
1386044910125,20.1969
1386044970125,20.2316
1386045030125,20.2319
1386045090125,20.2199
1386045150125,20.1760
1386045210125,20.2110
1386045270125,20.2406
1386045330125,20.2410
1386045390125,20.2346
1386045450125,20.2002
1386045510125,20.1265
1386045570125,20.2565
1386045630125,20.2358
1386045690125,20.2746
1386045750125,20.2339
1386045810125,20.2849
1386045870125,20.2214
1386045930125,20.1448
1386045990125,20.2446
1386046050125,20.2606
1386046110125,20.1976
1386046170125,20.2388
1386046230125,20.2282
1386046290125,20.2159
1386046350125,20.2913
1386046410125,20.3174
1386046470125,20.2476
1386046530125,20.3040
1386046590125,20.3105
1386046650125,20.2954
1386046710125,20.3193
1386046770125,20.3438
1386046830135,20.2532
1386046890135,20.3056
1386046950135,20.3369
1386047010135,20.3803
1386047070135,20.3644
1386047130135,20.2868
1386047190135,20.3511
1386047250135,20.3305
1386047310135,20.2870
1386047370135,20.3606
1386047430135,20.3335
1386047490135,20.3297
1386047550135,20.3669
1386047610135,20.3199
1386047670135,20.3838
1386047730135,20.3505
1386047790135,20.2857
1386047850135,20.2976
1386047910135,20.2617
1386047970135,20.2917
1386048030135,20.3310
1386048090135,20.2246
1386048150135,20.2541
1386048210135,20.2544
1386048270135,20.3254
1386048330135,20.3166
1386048390135,20.3269
1386048450135,20.3421
1386048510135,20.2707
1386048570135,20.3474
1386048630135,20.2544
1386048690135,20.3178
1386048750135,20.2658
1386048810135,20.2799
1386048870135,20.3202
1386048930135,20.2764
1386048990135,20.3037
1386049050135,20.3000
1386049110135,20.2153
1386049170135,20.3361
1386049230135,20.2585
1386049290135,20.3057
1386049350135,20.2680
1386049410135,20.2866
1386049470135,20.2918
1386049530135,20.3546
1386049590135,20.2752
1386049650135,20.3584
1386049710135,20.3077
1386049770135,20.2613
1386049830135,20.2929
1386049890135,20.3075
1386049950135,20.2527
1386050010135,20.2289
1386050070135,20.2878
1386050130135,20.3032
1386050190135,20.3672
1386050250135,20.3276
1386050310135,20.3883
1386050370135,20.3537
1386050430145,20.3725
1386050490145,20.3693
1386050550145,20.3505
1386050610145,20.3836
1386050670145,20.4135
1386050730145,20.3706
1386050790145,20.4026
1386050850145,20.3236
1386050910145,20.3561
1386050970145,20.4305
1386051030145,20.4658
1386051090145,20.4029
1386051150145,20.2866
1386051210145,20.3787
1386051270145,20.3991
1386051330145,20.3855
1386051390145,20.4079
1386051450145,20.3977
1386051510145,20.3774
1386051570145,20.4425
1386051630145,20.3208
1386051690145,20.3821
1386051750145,20.3611
1386051810145,20.3813
1386051870145,20.3615
1386051930145,20.3735
1386051990145,20.3244
1386052050145,20.4426
1386052110145,20.3499
1386052170145,20.3842
1386052230145,20.3804
1386052290145,20.4034
1386052350145,20.3863
1386052410145,20.4006
1386052470145,20.3394
1386052530145,20.4100
1386052590145,20.4122
1386052650145,20.4199
1386052710145,20.3734
1386052770145,20.3859
1386052830145,20.4051
1386052890145,20.3717
1386052950145,20.4716
1386053010145,20.4756
1386053070145,20.3680
1386053130145,20.3509
1386053190145,20.3927
1386053250145,20.3854
1386053310145,20.3648
1386053370145,20.3521
1386053430145,20.3726
1386053490145,20.3703
1386053550145,20.3450
1386053610145,20.3194
1386053670145,20.3257
1386053730145,20.3450
1386053790145,20.3706
1386053850145,20.3779
1386053910145,20.3772
1386053970145,20.3530
1386054030156,20.3573
1386054090156,20.3111
1386054150156,20.3379
1386054210156,20.3564
1386054270156,20.3241
1386054330156,20.3000
1386054390156,20.4055
1386054450156,20.3010
1386054510156,20.3260
1386054570156,20.4050
1386054630156,20.3167
1386054690156,20.4257
1386054750156,20.3783
1386054810156,20.4351
1386054870156,20.4186
1386054930156,20.4473
1386054990156,20.4192
1386055050156,20.3562
1386055110156,20.4137
1386055170156,20.3068
1386055230156,20.3390
1386055290156,20.4211
1386055350156,20.3396
1386055410156,20.3239
1386055470156,20.4214
1386055530156,20.3323
1386055590156,20.3687
1386055650156,20.3274
1386055710156,20.3237
1386055770156,20.3572
1386055830156,20.3434
1386055890156,20.3259
1386055950156,20.3269
1386056010156,20.3795
1386056070156,20.3666
1386056130156,20.3304
1386056190156,20.3563
1386056250156,20.3023
1386056310156,20.3695
1386056370156,20.3576
1386056430156,20.3628
1386056490156,20.3045
1386056550156,20.3209
1386056610156,20.2968
1386056670156,20.3545
1386056730156,20.2768
1386056790156,20.3473
1386056850156,20.3511
1386056910156,20.3633
1386056970156,20.2796
1386057030156,20.2968
1386057090156,20.3347
1386057150156,20.2756
1386057210156,20.3458
1386057270156,20.4143
1386057330156,20.3393
1386057390156,20.3920
1386057450156,20.3125
1386057510156,20.3604
1386057570156,20.2818
1386057630167,20.3216
1386057690167,20.2837
1386057750167,20.2958
1386057810167,20.3485
1386057870167,20.3564
1386057930167,20.3751
1386057990167,20.3861
1386058050167,20.3532
1386058110167,20.3206
1386058170167,20.2272
1386058230167,20.2699
1386058290167,20.3341
1386058350167,20.3153
1386058410167,20.3119
1386058470167,20.2658
1386058530167,20.2605
1386058590167,20.2523
1386058650167,20.2874
1386058710167,20.2143
1386058770167,20.2237
1386058830167,20.2887
1386058890167,20.2262
1386058950167,20.2419
1386059010167,20.2584
1386059070167,20.1953
1386059130167,20.2397
1386059190167,20.2800
1386059250167,20.2484
1386059310167,20.2532
1386059370167,20.2361
1386059430167,20.2019
1386059490167,20.2286
1386059550167,20.2194
1386059610167,20.1922
1386059670167,20.2019
1386059730167,20.2520
1386059790167,20.2384
1386059850167,20.1727
1386059910167,20.3368
1386059970167,20.2642
1386060030167,20.2357
1386060090167,20.2579
1386060150167,20.2360
1386060210167,20.1991
1386060270167,20.2362
1386060330167,20.2832
1386060390167,20.2960
1386060450167,20.2571
1386060510167,20.2714
1386060570167,20.2352
1386060630167,20.2149
1386060690167,20.2086
1386060750167,20.2289
1386060810167,20.3173
1386060870167,20.2974
1386060930167,20.2539
1386060990167,20.2547
1386061050167,20.3131
1386061110167,20.3266
1386061170167,20.2284
1386061230178,20.2634
1386061290178,20.2567
1386061350178,20.3711
1386061410178,20.2931
1386061470178,20.3058
1386061530178,20.2587
1386061590178,20.2129
1386061650178,20.6525
1386061710178,20.2380
1386061770178,20.2133
1386061830178,20.2809
1386061890178,20.3143
1386061950178,20.2270
1386062010178,20.2751
1386062070178,20.2192
1386062130178,20.2459
1386062190178,20.1940
1386062250178,20.2603
1386062310178,20.2725
1386062370178,20.2467
1386062430178,20.2551
1386062490178,20.2772
1386062550178,20.2355
1386062610178,20.2894
1386062670178,20.3220
1386062730178,20.2394
1386062790178,20.2259
1386062850178,20.2707
1386062910178,20.2487
1386062970178,20.1695
1386063030178,20.2437
1386063090178,20.1871
1386063150178,20.2818
1386063210178,20.2271
1386063270178,20.2021
1386063330178,20.2074
1386063390178,20.2583
1386063450178,20.1886
1386063510178,20.2211
1386063570178,20.1823
1386063630178,20.2522
1386063690178,20.2324
1386063750178,20.1842
1386063810178,20.3024
1386063870178,20.2271
1386063930178,20.2511
1386063990178,20.3072
1386064050178,20.2876
1386064110178,20.3192
1386064170178,20.2727
1386064230178,20.2454
1386064290178,20.2535
1386064350178,20.2789
1386064410178,20.1986
1386064470178,20.2519
1386064530178,20.2319
1386064590178,20.2889
1386064650178,20.2885
1386064710178,20.2041
1386064770178,20.2114
1386064830189,20.2509
1386064890189,20.2879
1386064950189,20.2632
1386065010189,20.2551
1386065070189,20.2524
1386065130189,20.2535
1386065190189,20.3360
1386065250189,20.2638
1386065310189,20.2451
1386065370189,20.2661
1386065430189,20.1937
1386065490189,20.2202
1386065550189,20.2120
1386065610189,20.2050
1386065670189,20.1811
1386065730189,20.1963
1386065790189,20.2495
1386065850189,20.2432
1386065910189,20.2102
1386065970189,20.2852
1386066030189,20.2679
1386066090189,20.2631
1386066150189,20.2769
1386066210189,20.2498
1386066270189,20.2942
1386066330189,20.2684
1386066390189,20.3323
1386066450189,20.2722
1386066510189,20.2563
1386066570189,20.2820
1386066630189,20.2602
1386066690189,20.2332
1386066750189,20.2421
1386066810189,20.2829
1386066870189,20.3526
1386066930189,20.3081
1386066990189,20.2081
1386067050189,20.3119
1386067110189,20.2229
1386067170189,20.3118
1386067230189,20.2859
1386067290189,20.2601
1386067350189,20.2424
1386067410189,20.2290
1386067470189,20.2840
1386067530189,20.3053
1386067590189,20.2643
1386067650189,20.2683
1386067710189,20.3179
1386067770189,20.2987
1386067830189,20.2414
1386067890189,20.3162
1386067950189,20.2240
1386068010189,20.2648
1386068070189,20.3202
1386068130189,20.2768
1386068190189,20.2927
1386068250189,20.3141
1386068310189,20.3218
1386068370189,20.3470
1386068430201,20.2286
1386068490201,20.2881
1386068550201,20.2010
1386068610201,20.2254
1386068670201,20.1966
1386068730201,20.1949
1386068790201,20.2011
1386068850201,20.3053
1386068910201,20.1586
1386068970201,20.2356
1386069030201,20.3063
1386069090201,20.2113
1386069150201,20.2992
1386069210201,20.1965
1386069270201,20.2075
1386069330201,20.3216
1386069390201,20.2794
1386069450201,20.2136
1386069510201,20.2747
1386069570201,20.2228
1386069630201,20.2587
1386069690201,20.1937
1386069750201,20.1773
1386069810201,20.1326
1386069870201,20.1768
1386069930201,20.1446
1386069990201,20.1493
1386070050201,20.1354
1386070110201,20.3364
1386070170201,20.2268
1386070230201,20.1808
1386070290201,20.1953
1386070350201,20.1448
1386070410201,20.1863
1386070470201,20.2126
1386070530201,20.1243
1386070590201,20.1291
1386070650201,20.2002
1386070710201,20.2463
1386070770201,20.1865
1386070830201,20.2217
1386070890201,20.2043
1386070950201,20.2182
1386071010201,20.2165
1386071070201,20.2107
1386071130201,20.1881
1386071190201,20.2270
1386071250201,20.2503
1386071310201,20.2612
1386071370201,20.2371
1386071430201,20.1990
1386071490201,20.2199
1386071550201,20.1723
1386071610201,20.1512
1386071670201,20.1880
1386071730201,20.1683
1386071790201,20.1745
1386071850201,20.2159
1386071910201,20.1419
1386071970201,20.2345
1386072030213,20.2045
1386072090213,20.2040
1386072150213,20.2227
1386072210213,20.2035
1386072270213,20.2571
1386072330213,20.2513
1386072390213,20.1697
1386072450213,20.1868
1386072510213,20.2417
1386072570213,20.1513
1386072630213,20.2546
1386072690213,20.1693
1386072750213,20.1483
1386072810213,20.1968
1386072870213,20.2176
1386072930213,20.1432
1386072990213,20.1687
1386073050213,20.1983
1386073110213,20.1516
1386073170213,20.2037
1386073230213,20.1710
1386073290213,20.2552
1386073350213,20.2590
1386073410213,20.1451
1386073470213,20.1863
1386073530213,20.0834
1386073590213,20.2130
1386073650213,20.1336
1386073710213,20.1502
1386073770213,20.1487
1386073830213,20.1777
1386073890213,20.1925
1386073950213,20.1456
1386074010213,20.2182
1386074070213,20.1944
1386074130213,20.1670
1386074190213,20.2155
1386074250213,20.2034
1386074310213,20.1669
1386074370213,20.1135
1386074430213,20.1770
1386074490213,20.1755
1386074550213,20.1527
1386074610213,20.1998
1386074670213,20.1748
1386074730213,20.2029
1386074790213,20.2366
1386074850213,20.1868
1386074910213,20.1695
1386074970213,20.2324
1386075030213,20.1677
1386075090213,20.2943
1386075150213,20.2531
1386075210213,20.3156
1386075270213,20.2780
1386075330213,20.1839
1386075390213,20.2403
1386075450213,20.2466
1386075510213,20.2654
1386075570213,20.1546
1386075630224,20.2728
1386075690224,20.2260
1386075750224,20.2507
1386075810224,20.3125
1386075870224,20.2485
1386075930224,20.2317
1386075990224,20.2560
1386076050224,20.2769
1386076110224,20.2952
1386076170224,20.3179
1386076230224,20.2761
1386076290224,20.4244
1386076350224,20.3850
1386076410224,20.3079
1386076470224,20.2459
1386076530224,20.2355
1386076590224,20.2379
1386076650224,20.1954
1386076710224,20.2134
1386076770224,20.1764
1386076830224,20.1728
1386076890224,20.1962
1386076950224,20.1883
1386077010224,20.2394
1386077070224,20.1925
1386077130224,20.1337
1386077190224,20.1815
1386077250224,20.2553
1386077310224,20.1668
1386077370224,20.1995
1386077430224,20.1356
1386077490224,20.1907
1386077550224,20.1755
1386077610224,20.1442
1386077670224,20.1993
1386077730224,20.1963
1386077790224,20.2008
1386077850224,20.2341
1386077910224,20.2237
1386077970224,20.2141
1386078030224,20.1842
1386078090224,20.2353
1386078150224,20.2074
1386078210224,20.2025
1386078270224,20.2032
1386078330224,20.2218
1386078390224,20.1328
1386078450224,20.1722
1386078510224,20.1668
1386078570224,20.2107
1386078630224,20.1764
1386078690224,20.1504
1386078750224,20.1170
1386078810224,20.1935
1386078870224,20.2155
1386078930224,20.1736
1386078990224,20.2077
1386079050224,20.1948
1386079110224,20.2233
1386079170224,20.2402
1386079230227,20.2026
1386079290227,20.1977
1386079350227,20.2034
1386079410227,20.2265
1386079470227,20.1980
1386079530227,20.1764
1386079590227,20.1747
1386079650227,20.1726
1386079710227,20.1850
1386079770227,20.1556
1386079830227,20.1577
1386079890227,20.1896
1386079950227,20.2161
1386080010227,20.2299
1386080070227,20.2771
1386080130227,20.2177
1386080190227,20.2699
1386080250227,20.2949
1386080310227,20.2409
1386080370227,20.2618
1386080430227,20.2359
1386080490227,20.1933
1386080550227,20.2607
1386080610227,20.2406
1386080670227,20.2117
1386080730227,20.2004
1386080790227,20.2629
1386080850227,20.2028
1386080910227,20.2374
1386080970227,20.2187
1386081030227,20.2076
1386081090227,20.2416
1386081150227,20.2253
1386081210227,20.1973
1386081270227,20.2225
1386081330227,20.2333
1386081390227,20.1904
1386081450227,20.2071
1386081510227,20.1494
1386081570227,20.1426
1386081630227,20.2121
1386081690227,20.2345
1386081750227,20.1983
1386081810227,20.2262
1386081870227,20.2341
1386081930227,20.2259
1386081990227,20.2189
1386082050227,20.2519
1386082110227,20.2361
1386082170227,20.2027
1386082230227,20.2989
1386082290227,20.2411
1386082350227,20.2411
1386082410227,20.1998
1386082470227,20.1603
1386082530227,20.2622
1386082590227,20.2807
1386082650227,20.2472
1386082710227,20.3006
1386082770227,20.3695
1386082830238,20.3374
1386082890238,20.3123
1386082950238,20.2882
1386083010238,20.2885
1386083070238,20.2615
1386083130238,20.2005
1386083190238,20.1801
1386083250238,20.2702
1386083310238,20.2397
1386083370238,20.2499
1386083430238,20.3456
1386083490238,20.1995
1386084030238,20.1668
1386084090238,20.1453
1386084150238,20.2370
1386084210238,20.1932
1386084270238,20.2325
1386084330238,20.2137
1386084390238,20.1501
1386084450238,20.1997
1386084510238,20.1904
1386084570238,20.1951
1386084630238,20.2215
1386084690238,20.2077
1386084750238,20.2407
1386084810238,20.2247
1386084870238,20.2353
1386084930238,20.2724
1386084990238,20.2664
1386085050238,20.2441
1386085110238,20.2466
1386085170238,20.2564
1386085230238,20.2235
1386085290238,20.2957
1386085350238,20.2688
1386085410238,20.2510
1386085470238,20.2528
1386085530238,20.1771
1386085590238,20.1682
1386085650238,20.2251
1386085710238,20.1994
1386085770238,20.2346
1386085830238,20.2219
1386085890238,20.2990
1386085950238,20.3422
1386086010238,20.3040
1386086070238,20.3441
1386086130238,20.4017
1386086190238,20.4065
1386086250238,20.3865
1386086310238,20.4119
1386086370238,20.4059
1386086430249,20.3669
1386086490249,20.3867
1386086550249,20.3380
1386086610249,20.3484
1386086670249,20.3075
1386086730249,20.3699
1386086790249,20.3394
1386086850249,20.3115
1386086910249,20.4117
1386086970249,20.3901
1386087030249,20.3226
1386087090249,20.3360
1386087150249,20.3463
1386087210249,20.3636
1386087270249,20.3185
1386087330249,20.3329
1386087390249,20.3092
1386087450249,20.3049
1386087510249,20.3238
1386087570249,20.3330
1386087630249,20.3584
1386087690249,20.3283
1386087750249,20.3746
1386087810249,20.3771
1386087870249,20.3564
1386087930249,20.3104
1386087990249,20.3643
1386088050249,20.3570
1386088110249,20.3325
1386088170249,20.3011
1386088230249,20.3893
1386088290249,20.3524
1386088350249,20.3583
1386088410249,20.3905
1386088470249,20.2253
1386088530249,20.3678
1386088590249,20.3602
1386088650249,20.3112
1386088710249,20.2569
1386088770249,20.2470
1386088830249,20.3275
1386088890249,20.2973
1386088950249,20.3273
1386089010249,20.3147
1386089070249,20.3470
1386089130249,20.2957
1386089190249,20.3579
1386089250249,20.3629
1386089310249,20.4475
1386089370249,20.3078
1386089430249,20.3493
1386089490249,20.3446
1386089550249,20.3503
1386089610249,20.3471
1386089670249,20.3662
1386089730249,20.3960
1386089790249,20.2923
1386089850249,20.3562
1386089910249,20.3829
1386089970249,20.4372
1386090030260,20.3442
1386090090260,20.3445
1386090150260,20.4110
1386090210260,20.3585
1386090270260,20.3335
1386090330260,20.3152
1386090390260,20.3316
1386090450260,20.3622
1386090510260,20.3570
1386090570260,20.3900
1386090630260,20.3491
1386090690260,20.3677
1386090750260,20.3051
1386090810260,20.2875
1386090870260,20.3105
1386090930260,20.3687
1386090990260,20.2744
1386091050260,20.3011
1386091110260,20.3267
1386091170260,20.3142
1386091230260,20.2836
1386091290260,20.3404
1386091350260,20.3401
1386091410260,20.3183
1386091470260,20.2728
1386091530260,20.2909
1386091590260,20.2715
1386091650260,20.3336
1386091710260,20.3237
1386091770260,20.2796
1386091830260,20.2554
1386091890260,20.3300
1386091950260,20.2481
1386092010260,20.3123
1386092070260,20.3404
1386092130260,20.3717
1386092190260,20.3013
1386092250260,20.3258
1386092310260,20.3057
1386092370260,20.3737
1386092430260,20.3355
1386092490260,20.2658
1386092550260,20.3392
1386092610260,20.2850
1386092670260,20.2995
1386092730260,20.3453
1386092790260,20.2931
1386092850260,20.2745
1386092910260,20.3917
1386092970260,20.3309
1386093030260,20.2882
1386093090260,20.3171
1386093150260,20.2615
1386093210260,20.3426
1386093270260,20.2571
1386093330260,20.3450
1386093390260,20.2429
1386093450260,20.2407
1386093510260,20.2938
1386093570260,20.3103
1386093630271,20.2894
1386093690271,20.2918
1386093750271,20.2986
1386093810271,20.2405
1386093870271,20.2931
1386093930271,20.2734
1386093990271,20.2913
1386094050271,20.2765
1386094110271,20.3397
1386094170271,20.2995
1386094230271,20.3366
1386094290271,20.2639
1386094350271,20.2552
1386094410271,20.3693
1386094470271,20.4324
1386094530271,20.3312
1386094590271,20.3416
1386094650271,20.3818